Find Starlink 32030

NORAD ID: 61513 Int'l Des: 2024-183 Owner: SPXS Country: US Constellation: starlink operational
LEOCIRCULAR

当前视图

正在加载3D地球...

About Starlink 32030

Starlink 32030 (NORAD 61513) is a starlink constellation satellite (v2 mini) launched Oct 15, 2024 by SPXS of US. It operates in LEO, CIRCULAR orbit with a mass of 730.00 kg.

即将过境

Passes for default location (London). Set your location on the main map for personalized predictions.

高度历史

Loading altitude history...

两行轨道根数

1 61513U 24183E 26254.54171687 .00000085 00000-0 13651-4 0 9995
2 61513 53.1613 357.3198 0001393 94.3261 265.7901 15.34376891108134
Epoch: Sep 11, 2026 • Age: 32 hours

当前状态

高度 467.9 km
远地点 / 近地点 N/A
速度 7.63 km/s
星下点 -17.85°S, 124.11°W
发射日期 Oct 15, 2024
运行时间 1.9 years
类型 internet

技术详情

分类 Payload
质量 730.00 kg
干质量 700.00 kg
总质量 730.00 kg
长度 0.30 m
直径 4.10 m
跨度 29.00 m
形状 Box + pan
制造商 SPXS
平台类型 Starlink V2M
阶段状态 In Orbit
所有者/国家 SPXS/US

Most Searched